KE8ZZR Weather Reports


Display with metric or nautical units.
time (UTC)temp
F
wind
direction
speed
MPH
gust
MPH
rain 1hr
in
rain 24hr
in
rain mn
in
humidity
%
barometer
mb
20260504010058 48 0 0.0 0.0 0.00 0.00 0.00 61 1012.3
20260504004557 50 0 0.0 1.0 0.00 0.00 0.00 59 1012.2
20260504003054 52 0 0.0 2.0 0.00 0.00 0.00 56 1012.2
20260504001559 53 131 0.0 3.0 0.00 0.00 0.00 52 1012.1
20260504000056 55 276 0.0 3.0 0.00 0.00 0.00 51 1012.2
20260503234622 56 275 1.0 5.0 0.00 0.00 0.00 49 1012.3
20260503233057 56 263 1.0 8.0 0.00 0.00 0.00 47 1012.5
20260503231555 57 272 1.0 5.0 0.00 0.00 0.00 48 1012.4
20260503230054 57 265 3.0 9.0 0.00 0.00 0.00 45 1012.4
20260503224554 58 283 3.0 11.0 0.00 0.00 0.00 44 1012.6
20260503223056 58 297 3.0 10.0 0.00 0.00 0.00 44 1012.6
20260503221601 57 229 2.0 8.0 0.00 0.00 0.00 46 1012.7
20260503220057 58 245 7.0 13.0 0.00 0.00 0.00 42 1012.7
20260503214553 58 139 3.0 10.0 0.00 0.00 0.00 45 1012.9
20260503213053 58 238 4.0 8.0 0.00 0.00 0.00 42 1012.8
20260503211556 59 322 2.0 13.0 0.00 0.00 0.00 43 1013.0
20260503210054 60 251 7.0 15.0 0.00 0.00 0.00 41 1012.9
20260503204557 59 165 2.0 10.0 0.00 0.00 0.00 43 1012.8
20260503203057 59 311 2.0 15.0 0.00 0.00 0.00 44 1012.8
20260503201555 60 220 7.0 14.0 0.00 0.00 0.00 43 1013.0
20260503200058 60 240 2.0 11.0 0.00 0.00 0.00 43 1013.3
20260503194603 60 284 1.0 10.0 0.00 0.00 0.00 44 1013.5
20260503193056 60 91 5.0 17.0 0.00 0.00 0.00 46 1013.7
20260503191557 59 290 7.0 20.0 0.00 0.00 0.00 41 1014.0
20260503190054 59 233 3.0 10.0 0.00 0.00 0.00 40 1014.1
20260503184559 60 199 6.0 14.0 0.00 0.00 0.00 41 1014.3
20260503183057 58 274 7.0 17.0 0.00 0.00 0.00 44 1014.5
20260503181557 58 287 7.0 14.0 0.00 0.00 0.00 43 1014.6
20260503180106 58 269 7.0 12.0 0.00 0.00 0.00 41 1014.7
20260503174559 58 265 4.0 15.0 0.00 0.00 0.00 43 1015.0
20260503173107 58 292 1.0 9.0 0.00 0.00 0.00 49 1015.1
20260503171555 57 265 5.0 12.0 0.00 0.00 0.00 47 1015.3
20260503140108 49 231 3.0 11.0 0.00 0.00 0.00 55 1017.0
20260503110110 31 0 0.0 1.0 0.00 0.00 0.00 92 1016.5
20260503081556 29 0 0.0 0.0 0.00 0.00 0.00 90 1016.3
20260503071612 30 0 0.0 0.0 0.00 0.00 0.00 88 1016.3
20260503060116 32 0 0.0 0.0 0.00 0.00 0.00 87 1016.4
20260503054601 33 0 0.0 0.0 0.00 0.00 0.00 86 1016.5
20260503053058 34 0 0.0 0.0 0.00 0.00 0.00 85 1016.5
20260503051555 35 0 0.0 0.0 0.00 0.00 0.00 85 1016.5
20260503050057 36 0 0.0 0.0 0.00 0.00 0.00 86 1016.5
20260503044558 36 0 0.0 0.0 0.00 0.00 0.00 86 1016.6
20260503043059 36 0 0.0 0.0 0.00 0.00 0.00 86 1016.6
20260503041555 36 0 0.0 0.0 0.00 0.00 0.00 85 1016.6
20260503040121 36 0 0.0 0.0 0.00 0.00 0.00 85 1016.7
20260503034601 36 0 0.0 0.0 0.00 0.00 0.00 85 1016.7
20260503033055 36 0 0.0 0.0 0.00 0.00 0.00 84 1016.9
20260503031606 36 0 0.0 0.0 0.00 0.00 0.00 84 1016.9
20260503030058 36 0 0.0 0.0 0.00 0.00 0.00 84 1017.0
20260503024556 36 0 0.0 0.0 0.00 0.00 0.00 83 1017.0
20260503023100 36 0 0.0 0.0 0.00 0.00 0.00 83 1017.2
20260503021600 36 0 0.0 0.0 0.00 0.00 0.00 82 1017.2
20260503020056 36 0 0.0 0.0 0.00 0.00 0.00 82 1017.1
20260503014609 37 0 0.0 0.0 0.00 0.00 0.00 81 1017.1
20260503013058 37 0 0.0 0.0 0.00 0.00 0.00 79 1017.1
20260503011600 37 0 0.0 0.0 0.00 0.00 0.00 77 1017.0